This is the latest recevied weather packets stored in our database for station/object N3TUQ-2. If no packets are shown the sender has not sent any weather packets the latest 10 day(s).
| Time | Temp. | Humidity | Pressure | Rain* | Wind** | Luminosity | Snow |
|---|---|---|---|---|---|---|---|
| 1788587693 | 17.22° C | 94% | 1012.4 hPa | 0 mm | - | - | - |
| 1788586913 | 17.22° C | 93% | 1012.4 hPa | 0 mm | - | - | - |
| 1788586134 | 17.22° C | 92% | 1012.5 hPa | 0 mm | - | - | - |
| 1788585354 | 17.22° C | 92% | 1012.6 hPa | 0 mm | - | - | - |
| 1788584574 | 17.78° C | 92% | 1012.7 hPa | 0 mm | - | - | - |
| 1788583794 | 17.78° C | 91% | 1012.7 hPa | 0 mm | - | - | - |
| 1788583013 | 18.33° C | 89% | 1012.7 hPa | 0 mm | - | - | - |
| 1788582234 | 18.33° C | 87% | 1012.5 hPa | 0 mm | - | - | - |
| 1788581453 | 18.33° C | 86% | 1012.7 hPa | 0 mm | - | - | - |
| 1788580675 | 18.89° C | 85% | 1012.6 hPa | 0 mm | - | - | - |
| 1788579907 | 18.89° C | 86% | 1012.3 hPa | 0 mm | - | - | - |
| 1788579114 | 18.89° C | 86% | 1012.3 hPa | 0 mm | - | - | - |
| 1788578333 | 18.33° C | 87% | 1012.3 hPa | 0 mm | - | - | - |
| 1788577553 | 18.89° C | 87% | 1012.2 hPa | 0 mm | - | - | - |
| 1788576773 | 18.89° C | 87% | 1012.2 hPa | 0 mm | - | - | - |
| 1788575993 | 18.89° C | 88% | 1012.2 hPa | 0 mm | - | - | - |
| 1788575214 | 18.89° C | 87% | 1012.4 hPa | 0 mm | - | - | - |
| 1788574434 | 20° C | 86% | 1012.4 hPa | 0 mm | - | - | - |
| 1788572873 | 20.56° C | 86% | 1013.4 hPa | 0 mm | - | - | - |
| 1788572093 | 20.56° C | 86% | 1013.3 hPa | 0 mm | - | - | - |
| 1788571313 | 20.56° C | 87% | 1013.2 hPa | 0 mm | - | - | - |
| 1788570533 | 20.56° C | 86% | 1013.2 hPa | 0 mm | - | - | - |
| 1788569754 | 20.56° C | 88% | 1013.3 hPa | 0 mm | - | - | - |
| 1788568974 | 20.56° C | 87% | 1013.3 hPa | 0 mm | - | - | - |
| 1788568193 | 20.56° C | 87% | 1013.1 hPa | 0 mm | - | - | - |
* Rain latest hour (hover to see other rain measurements)
** Current wind speed in m/s (hover to see current wind gust speed)